Date,TemperatureHighF,TemperatureAvgF,TemperatureLowF,DewpointHighF,DewpointAvgF,DewpointLowF,HumidityHigh,HumidityAvg,HumidityLow,PressureMaxIn,PressureMinIn,WindSpeedMaxMPH,WindSpeedAvgMPH,GustSpeedMaxMPH,PrecipitationSumIn
2013-6-5,70,65,61,-100,-100,-100,0,0,100,0.00,40.00,16,10,0,0.00
2013-6-6,72,62,54,-100,-100,-100,0,0,100,0.00,40.00,9,3,0,0.00
2013-6-7,65,59,55,-100,-100,-100,0,0,100,0.00,40.00,9,4,0,0.00
2013-6-8,61,57,55,-100,-100,-100,0,0,100,0.00,40.00,14,6,0,0.00
2013-6-9,61,57,54,-100,-100,-100,0,0,100,0.00,40.00,16,7,0,0.00
2013-6-10,65,58,53,-100,-100,-100,0,0,100,0.00,40.00,10,5,0,0.00
2013-6-11,63,57,52,-100,-100,-100,0,0,100,0.00,40.00,13,6,0,0.00
2013-6-12,64,57,52,-100,-100,-100,0,0,100,0.00,40.00,10,5,0,0.00
2013-6-13,62,56,52,-100,-100,-100,0,0,100,0.00,40.00,10,3,0,0.00
2013-6-14,63,57,54,-100,-100,-100,0,0,100,0.00,40.00,7,3,0,0.00
2013-6-15,67,59,52,-100,-100,-100,0,0,100,0.00,40.00,16,6,0,0.00
2013-6-16,70,61,54,-100,-100,-100,0,0,100,0.00,40.00,9,4,0,0.00
2013-6-17,69,61,55,-100,-100,-100,0,0,100,0.00,40.00,14,4,0,0.00
2013-6-18,59,57,55,-100,-100,-100,0,0,100,0.00,40.00,5,2,0,0.00
2013-6-19,62,60,58,-100,-100,-100,0,0,100,0.00,40.00,6,3,0,0.00
2013-6-20,61,57,55,-100,-100,-100,0,0,100,0.00,40.00,9,5,0,0.00
2013-6-22,70,62,54,-100,-100,-100,0,0,100,0.00,40.00,5,2,0,0.00
2013-6-23,64,60,56,-100,-100,-100,0,0,100,0.00,40.00,8,1,0,0.00
2013-6-24,66,61,57,-100,-100,-100,0,0,100,0.00,40.00,13,5,0,0.00
2013-6-25,68,60,55,-100,-100,-100,0,0,100,0.00,40.00,9,3,0,0.00
2013-6-26,69,62,55,-100,-100,-100,0,0,100,0.00,40.00,8,4,0,0.00
2013-6-27,64,60,57,-100,-100,-100,0,0,100,0.00,40.00,6,1,0,0.00
2013-6-28,72,62,56,-100,-100,-100,0,0,100,0.00,40.00,7,2,0,0.00
2013-6-29,74,64,59,-100,-100,-100,0,0,100,0.00,40.00,6,1,0,0.00
2013-6-30,81,64,59,-100,-100,-100,0,0,100,0.00,40.00,6,2,0,0.00